Lake Charles, LA

11:47 PM CDT on April 29, 2017 (GMT -0500)
Chennault International

Weather History for KCWF - February, 2014

Change the Weather History Date:

Wednesday, February 5, 2014

  Actual Average Record
Temperature  
Mean Temperature 44 °F -  
Max Temperature 53 °F 61 °F 77 °F (2008)
Min Temperature 36 °F 47 °F 24 °F (2011)
Degree Days  
Heating Degree Days 20    
Moisture  
Dew Point 36 °F    
Average Humidity 83    
Maximum Humidity 100    
Minimum Humidity 62    
Precipitation  
Precipitation 0.00 in - - ()
Sea Level Pressure  
Sea Level Pressure 30.23 in    
Wind  
Wind Speed 7 mph (North)    
Max Wind Speed 18 mph    
Max Gust Speed 24 mph    
Visibility 10 miles    
Events      
Averages and records for this station are not official NWS values.
T = Trace of Precipitation, MM = Missing Value Source: NWS Daily Summary

Daily Weather History Graph

Daily Weather History Graph

Search for Another Location

Airport or City:

Trip Planner

Search our weather history database for the weather conditions in past years. The results will help you decide how hot, cold, wet, or windy it might be!

Date:

Astronomy

Feb. 05, 2014 Rise Set
Actual Time 7:00 AM CST 5:52 PM CST
Civil Twilight 6:35 AM CST 6:17 PM CST
Nautical Twilight 6:07 AM CST 6:46 PM CST
Astronomical Twilight 5:38 AM CST 7:14 PM CST
Moon 10:46 AM CST (2/5) No Moon Set
Length of Visible Light 11h 42m
Length of Day
10h 52m
Waxing Crescent, 39% of the Moon is Illuminated
Feb 5
Waxing Crescent
Feb 6
First Quarter
Feb 14
Full
Feb 22
Last Quarter
Mar 1
New

Hourly Weather History & Observations

Time (CST) Temp. Windchill Dew Point Humidity Pressure Visibility Wind Dir Wind Speed Gust Speed Precip Events Conditions
12:15 AM 41.5 °F 37.8 °F 39.2 °F 91% 30.10 in 10.0 mi North 5.8 mph - N/A   Clear
12:35 AM 41.2 °F 38.2 °F 38.8 °F 91% 30.10 in 10.0 mi North 4.6 mph - N/A   Clear
12:55 AM 41.0 °F 39.0 °F 38.5 °F 91% 30.11 in 10.0 mi North 3.5 mph - N/A   Clear
1:15 AM 40.3 °F - 39.0 °F 95% 30.11 in 10.0 mi Calm Calm - N/A   Clear
1:35 AM 39.6 °F 37.4 °F 39.6 °F 100% 30.11 in 10.0 mi North 3.5 mph - N/A   Clear
1:55 AM 38.5 °F 36.1 °F 38.5 °F 100% 30.12 in 7.0 mi North 3.5 mph - N/A   Clear
2:15 AM 39.2 °F 37.0 °F 39.2 °F 100% 30.12 in 10.0 mi North 3.5 mph - N/A   Clear
2:35 AM 39.2 °F 37.0 °F 37.8 °F 95% 30.12 in 10.0 mi North 3.5 mph - N/A   Clear
2:55 AM 38.7 °F - 38.5 °F 99% 30.12 in 10.0 mi Calm Calm - N/A   Clear
3:15 AM 37.9 °F - 37.4 °F 98% 30.13 in 10.0 mi Calm Calm - N/A   Clear
3:35 AM 38.8 °F 36.5 °F 38.8 °F 100% 30.13 in 10.0 mi NNW 3.5 mph - N/A   Clear
3:55 AM 36.9 °F 32.2 °F 36.9 °F 100% 30.14 in 7.0 mi NNW 5.8 mph - N/A   Clear
4:15 AM 37.4 °F 34.9 °F 37.4 °F 100% 30.15 in 7.0 mi North 3.5 mph - N/A   Clear
4:35 AM 36.9 °F 34.3 °F 36.9 °F 100% 30.15 in 7.0 mi North 3.5 mph - N/A   Clear
4:55 AM 37.4 °F - 37.4 °F 100% 30.16 in 10.0 mi Calm Calm - N/A   Clear
5:15 AM 38.1 °F 33.7 °F 36.7 °F 95% 30.17 in 10.0 mi North 5.8 mph - N/A   Clear
5:35 AM 39.0 °F 34.0 °F 36.5 °F 91% 30.18 in 10.0 mi North 6.9 mph - N/A   Clear
5:55 AM 39.6 °F 34.0 °F 36.5 °F 89% 30.19 in 10.0 mi North 8.1 mph - N/A   Clear
6:00 AM 39.2 °F 33.6 °F 37.4 °F 93% 30.09 in 10.0 mi North 8.1 mph - N/A   Clear
6:50 AM 39.2 °F 33.6 °F 35.6 °F 87% 30.21 in 10.0 mi North 8.1 mph - N/A   Clear
7:50 AM 41.0 °F 35.8 °F 37.4 °F 87% 30.26 in 10.0 mi North 8.1 mph - N/A   Clear
8:58 AM 44.6 °F 38.4 °F 39.2 °F 81% 30.31 in 10.0 mi North 12.7 mph 19.6 mph N/A   Scattered Clouds
9:30 AM 46.4 °F 40.1 °F 39.2 °F 76% 30.32 in 10.0 mi NNW 15.0 mph 21.9 mph N/A   Mostly Cloudy
9:50 AM 44.6 °F 37.8 °F 37.4 °F 76% 30.33 in 10.0 mi NNW 15.0 mph 21.9 mph N/A   Mostly Cloudy
10:50 AM 44.6 °F 36.9 °F 37.4 °F 76% 30.33 in 10.0 mi North 18.4 mph 24.2 mph N/A   Mostly Cloudy
11:58 AM 46.4 °F 39.8 °F 37.4 °F 71% 30.31 in 10.0 mi North 16.1 mph 23.0 mph N/A   Mostly Cloudy
12:55 PM 46.4 °F 39.8 °F 37.4 °F 71% 30.29 in 10.0 mi North 16.1 mph 23.0 mph N/A   Mostly Cloudy
1:55 PM 46.4 °F 39.8 °F 35.6 °F 66% 30.28 in 10.0 mi North 16.1 mph 23.0 mph N/A   Mostly Cloudy
2:55 PM 48.2 °F - 35.6 °F 62% 30.27 in 10.0 mi NNE 16.1 mph 20.7 mph N/A   Mostly Cloudy
3:55 PM 46.4 °F 41.5 °F 33.8 °F 62% 30.27 in 10.0 mi North 10.4 mph 20.7 mph N/A   Scattered Clouds
4:52 PM 46.4 °F 41.1 °F 33.8 °F 62% 30.29 in 10.0 mi North 11.5 mph - N/A   Scattered Clouds
4:55 PM 53.6 °F - 46.4 °F 77% 29.93 in 10.0 mi Calm Calm - N/A   Mostly Cloudy
5:50 PM 42.8 °F 36.6 °F 32.0 °F 66% 30.31 in 10.0 mi North 11.5 mph 18.4 mph N/A   Scattered Clouds
6:50 PM 39.2 °F 32.0 °F 30.2 °F 70% 30.32 in 10.0 mi North 11.5 mph 18.4 mph N/A   Scattered Clouds
7:50 PM 39.2 °F 32.0 °F 30.2 °F 70% 30.33 in 10.0 mi North 11.5 mph 17.3 mph N/A   Mostly Cloudy
8:52 PM 39.2 °F 32.0 °F 30.2 °F 70% 30.35 in 10.0 mi North 11.5 mph 17.3 mph N/A   Mostly Cloudy
9:50 PM 37.4 °F 30.3 °F 30.2 °F 75% 30.36 in 10.0 mi NNE 10.4 mph - N/A   Mostly Cloudy
10:15 PM 38.7 °F 33.6 °F 30.2 °F 72% 30.38 in 10.0 mi NNE 6.9 mph - N/A   Scattered Clouds
10:35 PM 38.3 °F 32.5 °F 29.1 °F 70% 30.38 in 10.0 mi NNE 8.1 mph - N/A   Clear
10:55 PM 37.6 °F 30.5 °F 28.9 °F 71% 30.38 in 10.0 mi NNE 10.4 mph - N/A   Scattered Clouds
11:15 PM 37.4 °F 31.4 °F 28.9 °F 71% 30.38 in 10.0 mi NE 8.1 mph - N/A   Mostly Cloudy
11:35 PM 37.0 °F 29.8 °F 29.1 °F 73% 30.37 in 10.0 mi North 10.4 mph - N/A   Overcast
11:55 PM 36.5 °F 30.3 °F 28.6 °F 73% 30.37 in 10.0 mi NNE 8.1 mph - N/A   Mostly Cloudy